TIANWANG 1B (TW-1B)
1 40927U 15051C   20001.41095204  .00009807  00000-0  13130-3 0  9997
2 40927  97.1131  51.5164 0007763  26.5221  94.0802 15.58169304240606
TIANWANG 1A (TW-1A)
1 40928U 15051D   20001.48526355  .00001867  00000-0  46012-4 0  9995
2 40928  97.1269  33.3327 0012704  79.5862  56.4467 15.41739609239484
LAPAN A2
1 40931U 15052B   19359.88757643  .00000532  00000-0 -14754-4 0  9991
2 40931   5.9859 140.5424 0010111 333.4127  26.3464 14.76619879229413
LQSAT
1 40958U 15057A   19365.73298337 +.00000026 +00000-0 +11626-4 0  9998
2 40958 097.8769 069.3939 0017483 336.1412 023.8984 14.73102309227674
CHUBUSAT 2
1 41338U 16012B   19365.64126039 +.00000264 +00000-0 +13732-4 0  9996
2 41338 031.0045 339.4241 0013813 244.0601 115.8611 15.00225564212360
CHUBUSAT 3
1 41339U 16012C   20001.31996538  .00000234  00000-0  11390-4 0  9994
2 41339  31.0143 332.9531 0013595 259.1954 100.7151 15.00395565212467
OUFTI-1
1 41458U 16025C   19365.78745631  .00000605  00000-0  34419-4 0  9997
2 41458  98.0997 102.6306 0166143  57.8425 303.8796 15.06350410202089
E-STAR-2
1 41459U 16025D   20001.51714304  .00000667  00000-0  37702-4 0  9997
2 41459  98.0996 102.9387 0167762  57.0956 304.6280 15.05953936202167
AAUSAT 4
1 41460U 16025E   20001.50109516  .00000744  00000-0  40648-4 0  9990
2 41460  98.0967 104.6987 0156961  47.7586 313.6839 15.08042324202327
NUSAT 1
1 41557U 16033B   20001.51672752  .00000785  00000-0  31789-4 0  9995
2 41557  97.4113  92.8496 0012668 328.1084  31.9387 15.27631328200131
BEESAT 4
1 41619U 16040W   20001.44717067  .00000905  00000-0  40694-4 0  9992
2 41619  97.3440  64.7774 0012521  56.9216 303.3222 15.23576987183814
PRATHAM
1 41783U 16059A   20001.16100715  .00000034  00000-0  15637-4 0  9991
2 41783  98.0425  61.1301 0034698 124.9877 235.4591 14.63029414174277
ALSAT 1N
1 41789U 16059G   20001.39165188  .00000072  00000-0  22557-4 0  9998
2 41789  98.0457  63.7885 0029585 112.9719 247.4609 14.64287151174430
NAYIF 1
1 42017U 17008BX  19365.92401925 +.00001206 +00000-0 +49681-4 0  9997
2 42017 097.3820 070.8013 0006035 182.3231 177.7980 15.26019848159848
MAX VALIER SAT
1 42778U 17036P   19365.88938217 +.00000684 +00000-0 +32629-4 0  9999
2 42778 097.3300 058.9787 0010757 252.3697 107.6365 15.22326368140089
